Torna al catalogo

SL-14 R/B

AttivoPO
NORAD 16496·ROCKET BODY·🇷🇺 Russia

Lanciato Jan 17, 1986 da Plesetsk Cosmodrome

Loading…

Prossimi Passaggi (prossime 24 ore)

TLE

AggiornatoSource: Space-Track

Epoca: Sep 14, 2026, 11:35 UTC

1 16496U 86006B   26257.48288136  .00000339  00000-0  33021-4 0  9996
2 16496  82.5233  82.0710 0076402   7.8265 352.4123 14.87012502177269

Traccia SL-14 R/B in tempo reale con AllMySat

Download on the App Store